Tracking 31027 objects as of 19-Jul-2025
HD Live streaming from Space Station
objects crossing your sky now

FENGYUN 1C DEB

Track FENGYUN 1C DEB now!
10-day predictions


NORAD ID: 33664
Int'l Code: 1999-025DEZ
Perigee: 768.0 km
Apogee: 1,008.1 km
Inclination: 98.7 °
Period: 102.6 minutes
Semi major axis: 7259 km
RCS: 0.0059 m2 (small)
Launch date: May 10, 1999
Source: People's Republic of China (PRC)
Launch site: Taiyaun Space Center, China (TSC)

Note: This is SATELLITE DEBRIS
Your satellite tracking list
TITAN 3C TRANSTAGE DEB
Track 1 satellite(s)




NASA's NSSDC Master Catalog

Two Line Element Set (TLE):
1 33664U 99025DEZ 25194.65504721  .00000652  00000-0  38983-3 0  9995
2 33664  98.6840 349.9097 0165412 106.8391 255.0991 14.03727188886056
Source of the keplerian elements: AFSPC